| time (UTC) | temp F | wind direction | speed MPH | gust MPH | rain 1hr in | rain 24hr in | rain mn in | humidity % | barometer mb |
| 20260906183049 | 58 | 311 | 0.0 | 2.0 | 0.00 | 0.00 | 0.00 | 65 | 1014.8 |
| 20260906181548 | 57 | 184 | 2.0 | 4.0 | 0.00 | 0.00 | 0.00 | 66 | 1015.0 |
| 20260906180040 | 57 | 186 | 0.0 | 3.0 | 0.00 | 0.00 | 0.00 | 67 | 1015.1 |
| 20260906174540 | 57 | 107 | 1.0 | 5.0 | 0.00 | 0.00 | 0.00 | 68 | 1015.2 |
| 20260906173036 | 56 | 109 | 1.0 | 7.0 | 0.00 | 0.00 | 0.00 | 70 | 1015.3 |
| 20260906171539 | 56 | 73 | 3.0 | 5.0 | 0.00 | 0.00 | 0.00 | 72 | 1015.3 |
| 20260906170032 | 55 | 125 | 1.0 | 7.0 | 0.00 | 0.00 | 0.00 | 73 | 1015.3 |
| 20260906164536 | 55 | 104 | 1.0 | 10.0 | 0.00 | 0.00 | 0.00 | 72 | 1015.4 |
| 20260906163028 | 56 | 100 | 2.0 | 7.0 | 0.00 | 0.00 | 0.00 | 71 | 1015.4 |
| 20260906161524 | 55 | 145 | 0.0 | 4.0 | 0.00 | 0.00 | 0.00 | 71 | 1015.5 |
| 20260906160051 | 54 | 215 | 1.0 | 5.0 | 0.00 | 0.00 | 0.00 | 73 | 1015.5 |
| 20260906154547 | 52 | 131 | 1.0 | 3.0 | 0.00 | 0.00 | 0.00 | 77 | 1015.6 |
| 20260906153023 | 50 | 252 | 2.0 | 3.0 | 0.00 | 0.00 | 0.00 | 80 | 1015.8 |
| 20260906151515 | 50 | 289 | 0.0 | 0.0 | 0.00 | 0.00 | 0.00 | 81 | 1015.8 |
| 20260906150037 | 49 | 290 | 0.0 | 0.0 | 0.00 | 0.00 | 0.00 | 83 | 1015.4 |
| 20260906144537 | 48 | 289 | 0.0 | 0.0 | 0.00 | 0.00 | 0.00 | 83 | 1015.2 |
| 20260906143034 | 49 | 290 | 0.0 | 0.0 | 0.00 | 0.00 | 0.00 | 81 | 1014.9 |
| 20260906141531 | 46 | 290 | 0.0 | 0.0 | 0.00 | 0.00 | 0.00 | 86 | 1014.4 |
| 20260906140030 | 46 | 288 | 0.0 | 1.0 | 0.00 | 0.00 | 0.00 | 85 | 1014.3 |
| 20260906134530 | 45 | 267 | 0.0 | 2.0 | 0.00 | 0.00 | 0.00 | 85 | 1014.3 |
| 20260906133100 | 45 | 261 | 0.0 | 2.0 | 0.00 | 0.00 | 0.00 | 84 | 1014.2 |
| 20260906131601 | 45 | 298 | 0.0 | 0.0 | 0.00 | 0.00 | 0.00 | 85 | 1014.1 |
| 20260906130130 | 45 | 292 | 0.0 | 2.0 | 0.00 | 0.00 | 0.00 | 84 | 1014.2 |
| 20260906124602 | 45 | 324 | 0.0 | 3.0 | 0.00 | 0.00 | 0.00 | 85 | 1014.4 |
| 20260906123052 | 45 | 290 | 0.0 | 2.0 | 0.00 | 0.00 | 0.00 | 84 | 1014.5 |
| 20260906121601 | 45 | 284 | 0.0 | 2.0 | 0.00 | 0.00 | 0.00 | 84 | 1014.5 |
| 20260906120046 | 45 | 311 | 0.0 | 1.0 | 0.00 | 0.00 | 0.00 | 83 | 1014.6 |
| 20260906114545 | 46 | 265 | 1.0 | 2.0 | 0.00 | 0.00 | 0.00 | 83 | 1014.6 |
| 20260906113050 | 45 | 146 | 0.0 | 0.0 | 0.00 | 0.00 | 0.00 | 85 | 1014.6 |
| 20260906111543 | 46 | 128 | 0.0 | 0.0 | 0.00 | 0.00 | 0.00 | 85 | 1014.6 |
| 20260906110011 | 45 | 128 | 0.0 | 0.0 | 0.00 | 0.00 | 0.00 | 87 | 1014.7 |
| 20260906104511 | 46 | 128 | 0.0 | 0.0 | 0.00 | 0.00 | 0.00 | 86 | 1014.8 |
| 20260906103017 | 46 | 128 | 0.0 | 0.0 | 0.00 | 0.00 | 0.00 | 85 | 1014.8 |
| 20260906101506 | 46 | 128 | 0.0 | 0.0 | 0.00 | 0.00 | 0.00 | 86 | 1014.7 |
| 20260906100014 | 46 | 123 | 0.0 | 0.0 | 0.00 | 0.00 | 0.00 | 86 | 1014.7 |
| 20260906094504 | 46 | 123 | 0.0 | 0.0 | 0.00 | 0.00 | 0.00 | 85 | 1015.0 |
| 20260906093039 | 47 | 123 | 0.0 | 0.0 | 0.00 | 0.00 | 0.00 | 86 | 1014.9 |
| 20260906091533 | 47 | 124 | 0.0 | 1.0 | 0.00 | 0.00 | 0.00 | 86 | 1014.8 |
| 20260906090031 | 47 | 146 | 0.0 | 0.0 | 0.00 | 0.00 | 0.00 | 87 | 1015.0 |
| 20260906084530 | 47 | 64 | 0.0 | 1.0 | 0.00 | 0.00 | 0.00 | 86 | 1015.0 |
| 20260906083029 | 47 | 98 | 0.0 | 0.0 | 0.00 | 0.00 | 0.00 | 86 | 1015.0 |
| 20260906081526 | 47 | 81 | 0.0 | 0.0 | 0.00 | 0.00 | 0.00 | 86 | 1015.3 |
| 20260906080025 | 48 | 80 | 0.0 | 0.0 | 0.00 | 0.00 | 0.00 | 85 | 1015.3 |
| 20260906074520 | 49 | 71 | 0.0 | 0.0 | 0.00 | 0.00 | 0.00 | 84 | 1015.4 |
| 20260906073019 | 49 | 71 | 0.0 | 0.0 | 0.00 | 0.00 | 0.00 | 83 | 1015.4 |
| 20260906071519 | 49 | 71 | 0.0 | 0.0 | 0.00 | 0.00 | 0.00 | 83 | 1015.6 |
| 20260906070021 | 49 | 69 | 0.0 | 1.0 | 0.00 | 0.00 | 0.00 | 83 | 1015.6 |
| 20260906064532 | 48 | 114 | 0.0 | 0.0 | 0.00 | 0.00 | 0.00 | 82 | 1015.6 |
| 20260906063021 | 48 | 116 | 0.0 | 0.0 | 0.00 | 0.00 | 0.00 | 83 | 1015.6 |
| 20260906061524 | 48 | 118 | 0.0 | 0.0 | 0.00 | 0.00 | 0.00 | 83 | 1015.4 |
| 20260906060017 | 49 | 118 | 0.0 | 0.0 | 0.00 | 0.00 | 0.00 | 80 | 1015.4 |
| 20260906054526 | 51 | 124 | 0.0 | 0.0 | 0.00 | 0.00 | 0.00 | 79 | 1015.7 |
| 20260906053014 | 51 | 122 | 0.0 | 0.0 | 0.00 | 0.00 | 0.00 | 78 | 1015.8 |
| 20260906051514 | 51 | 119 | 0.0 | 0.0 | 0.00 | 0.00 | 0.00 | 78 | 1015.8 |
| 20260906050012 | 51 | 128 | 0.0 | 0.0 | 0.00 | 0.00 | 0.00 | 78 | 1016.0 |
| 20260906044512 | 52 | 163 | 0.0 | 1.0 | 0.00 | 0.00 | 0.00 | 77 | 1016.1 |
| 20260906043020 | 52 | 118 | 0.0 | 1.0 | 0.00 | 0.00 | 0.00 | 77 | 1016.3 |
| 20260906041510 | 52 | 163 | 0.0 | 1.0 | 0.00 | 0.00 | 0.00 | 77 | 1016.4 |
| 20260906040008 | 53 | 106 | 0.0 | 1.0 | 0.00 | 0.00 | 0.00 | 76 | 1016.4 |
| 20260906034508 | 53 | 125 | 0.0 | 0.0 | 0.00 | 0.00 | 0.00 | 75 | 1016.4 |
| 20260906033006 | 54 | 141 | 0.0 | 0.0 | 0.00 | 0.00 | 0.00 | 74 | 1016.4 |
| 20260906031509 | 55 | 215 | 0.0 | 0.0 | 0.00 | 0.00 | 0.00 | 73 | 1016.3 |
| 20260906030003 | 56 | 218 | 0.0 | 0.0 | 0.00 | 0.00 | 0.00 | 72 | 1016.2 |
| 20260906024503 | 58 | 218 | 0.0 | 0.0 | 0.00 | 0.00 | 0.00 | 68 | 1016.0 |
| 20260906023002 | 60 | 218 | 0.0 | 0.0 | 0.00 | 0.00 | 0.00 | 64 | 1015.8 |
| 20260906021503 | 62 | 205 | 0.0 | 1.0 | 0.00 | 0.00 | 0.00 | 60 | 1015.9 |
| 20260906020001 | 63 | 214 | 0.0 | 1.0 | 0.00 | 0.00 | 0.00 | 57 | 1015.8 |
| 20260906014536 | 65 | 211 | 0.0 | 0.0 | 0.00 | 0.00 | 0.00 | 53 | 1015.8 |
| 20260906013040 | 66 | 214 | 0.0 | 2.0 | 0.00 | 0.00 | 0.00 | 51 | 1015.9 |
| 20260906011501 | 66 | 195 | 0.0 | 1.0 | 0.00 | 0.00 | 0.00 | 50 | 1016.0 |
| 20260906010100 | 66 | 211 | 0.0 | 3.0 | 0.00 | 0.00 | 0.00 | 49 | 1015.9 |
| 20260906004556 | 66 | 334 | 0.0 | 1.0 | 0.00 | 0.00 | 0.00 | 49 | 1015.7 |
| 20260906003056 | 66 | 334 | 0.0 | 3.0 | 0.00 | 0.00 | 0.00 | 46 | 1015.7 |
| 20260906001554 | 70 | 207 | 0.0 | 3.0 | 0.00 | 0.00 | 0.00 | 43 | 1015.7 |
| 20260906000055 | 71 | 250 | 0.0 | 1.0 | 0.00 | 0.00 | 0.00 | 42 | 1015.7 |
| 20260905234548 | 69 | 246 | 0.0 | 2.0 | 0.00 | 0.00 | 0.00 | 44 | 1015.8 |
| 20260905233047 | 66 | 26 | 0.0 | 3.0 | 0.00 | 0.00 | 0.00 | 47 | 1015.8 |
| 20260905231547 | 68 | 327 | 0.0 | 4.0 | 0.00 | 0.00 | 0.00 | 45 | 1015.9 |
| 20260905230044 | 67 | 326 | 0.0 | 4.0 | 0.00 | 0.00 | 0.00 | 47 | 1015.9 |
| 20260905224540 | 68 | 312 | 1.0 | 7.0 | 0.00 | 0.00 | 0.00 | 46 | 1016.1 |
| 20260905223039 | 67 | 202 | 0.0 | 2.0 | 0.00 | 0.00 | 0.00 | 49 | 1016.3 |
| 20260905221538 | 68 | 259 | 0.0 | 4.0 | 0.00 | 0.00 | 0.00 | 49 | 1016.3 |
| 20260905220034 | 66 | 39 | 0.0 | 5.0 | 0.00 | 0.00 | 0.00 | 52 | 1016.4 |
| 20260905214533 | 64 | 321 | 0.0 | 3.0 | 0.00 | 0.00 | 0.00 | 54 | 1016.4 |
| 20260905213029 | 64 | 306 | 0.0 | 3.0 | 0.00 | 0.00 | 0.00 | 56 | 1016.7 |
| 20260905211527 | 65 | 312 | 0.0 | 6.0 | 0.00 | 0.00 | 0.00 | 56 | 1016.8 |
| 20260905210023 | 63 | 327 | 0.0 | 5.0 | 0.00 | 0.00 | 0.00 | 58 | 1016.9 |
| 20260905204554 | 63 | 350 | 2.0 | 9.0 | 0.00 | 0.00 | 0.00 | 57 | 1017.0 |
| 20260905203051 | 62 | 311 | 0.0 | 5.0 | 0.00 | 0.00 | 0.00 | 60 | 1017.1 |
| 20260905201520 | 61 | 313 | 0.0 | 1.0 | 0.00 | 0.00 | 0.00 | 61 | 1017.2 |
| 20260905200028 | 61 | 333 | 0.0 | 1.0 | 0.00 | 0.00 | 0.00 | 62 | 1017.0 |
| 20260905194516 | 61 | 215 | 0.0 | 1.0 | 0.00 | 0.00 | 0.00 | 61 | 1016.9 |
| 20260905193017 | 60 | 194 | 0.0 | 4.0 | 0.00 | 0.00 | 0.00 | 66 | 1016.9 |
| 20260905191515 | 60 | 338 | 0.0 | 1.0 | 0.00 | 0.00 | 0.00 | 65 | 1017.1 |
| 20260905190022 | 61 | 217 | 0.0 | 0.0 | 0.00 | 0.00 | 0.00 | 62 | 1017.4 |
| 20260905184546 | 60 | 223 | 0.0 | 1.0 | 0.00 | 0.00 | 0.00 | 60 | 1017.4 |